STARLINK-33794, 63820

Orbit data source: Space-Track

STARLINK-33794, 63820 is a payload satellite owned by SpaceX/Seattle (US) in LEO that was launched on Sun, 04 May 2025 UTC via an FALCON 9 launch vehicle from the Air Force Eastern Test Range (AFETR). Payload-class satellites include a variety of spacecraft equipped with specific instruments for various scientific and technological missions. These include communications satellites like Starlink; space stations such as the ISS; scientific satellites like the Hubble; Earth observation satellites from companies like Planet Labs, Umbra, and HawkEye 360; GPS; miniature CubeSats for education and research; and military/defense satellites.

Loading next visibility...
Identifier
63820, 2025-092S
Orbit
LEO
Last TLE update
16 hours ago
Origin
Manufacturer
SpaceX/Seattle
Mission
Operational spacecraft
Bus & Motor
STARLINK V2MO, Unknown motor
Mass
575 kg wet, ~530 kg dry
Launch date (UTC)
2025-05-04 (1 week ago)
Launch vehicle
FALCON 9
Launch site
Air Force Eastern Test Range (AFETR)
Object type
Payload
Rocket body
Debris
Shape & HBR
Unknown
Radar Cross Section
Medium (>0.1 m² and <1 m²)

Expand to show TLE details & history

TLE from 16 hours ago
0 STARLINK-33794
1 63820U 25092S   25132.91668981 -.00986380  00000-0 -35995-2 0  9997
2 63820  43.0009  80.1124 0001602 252.9542  77.0896 15.89662585  2511
Epoch: 2025-05-12T22:00Z
Definitive object data (Epoch: 2025-05-12T22:00:01.999Z)
Latitude
-20.05851°
Longitude
-143.73139°
Altitude
307.424 km
Speed
7.724 km/s
True Right ascension
03h 48m 47s
True Declination
-19° 56' 26"
Sunlit
Object was in daylight at TLE epoch
Visualization TLE readout
Latitude
-39.7094°
Longitude
172.62248°
Altitude
318.171 km
Speed
7.718 km/s
Apparent Right ascension
05h 31m 27s
Apparent Declination
-72° 14' 57"
Sunlit
Object is in daylight
Visualization observer readout
Local Sidereal Time
22:51:48
Azimuth
156.683° SSE
Elevation
-40.646°
Doppler factor
1
Orbital elements
Apogee altitude
306.296 km
Perigee altitude
304.155 km
Semi-major axis
6,683.362 km
Eccentricity
0.0001602
Inclination
43.0009°
RAAN
80.1124°
Arg. of periapsis
252.9542°
True anomaly
77.10749°
Mean anomaly
77.0896°
Eccentric anomaly
77.09855°
Mean motion
3.97238 °/min
BSTAR
-0.0035995
Orbital period
90.63 mins
Loading maneuver chart data...
Loading SW <> Apogee altitude chart data...
Loading historical data...
Loading historical data...
Loading historical data...
Loading historical data...
Loading historical data...
Loading historical data...
Loading historical data...

STARLINK-33794 Visibility forecast

Observer location: undefined°, undefined°

Span
Click to sort rows by Start time (UTC) header in descending order
Start Az.
Max El. time (UTC)
Max El. Az.
Max El.
End time (UTC)
End Az.
4 mins2025-05-14 00:00:53.187Z224.339° SW2025-05-14 00:02:53.187Z135.699° SSE34.723°2025-05-14 00:04:53.187Z82.101° E
|